VLG83XP LIRF-LEVC

Flight info

Callsign VLG83XP
Flight time N/A
Altitude 35000
Route ESINO DCT ABIDU DCT GOKMI DCT SUPUX DCT KUPIM DCT SUXER DCT RIPAL DCT MORSS DCT MHN DCT CDP N733 ARGOR
Aircraft A320/M-SDE3FGHIRWY/LB1

Departure

Time N/A
Airport Rome–Fiumicino Leonardo da Vinci International Airport (LIRF)

Arrival

Time 2026-05-04 17:40
Airport Valencia Airport (LEVC)
Time Latitude Longitude Altitude Speed Heading
2026-05-04 16:03 41.26105 11.34121 23744 ft 401 kts 251°
2026-05-04 16:03 41.25145 11.30630 24110 ft 403 kts 251°
2026-05-04 16:04 41.24181 11.27137 24515 ft 403 kts 251°
2026-05-04 16:04 41.22241 11.20139 25317 ft 404 kts 251°
2026-05-04 16:04 41.21269 11.16628 25712 ft 405 kts 251°
2026-05-04 16:05 41.20298 11.13121 26102 ft 405 kts 251°
2026-05-04 16:05 41.19326 11.09614 26485 ft 405 kts 251°
2026-05-04 16:05 41.17373 11.02592 27268 ft 406 kts 251°
2026-05-04 16:06 41.16390 10.99083 27656 ft 406 kts 251°
2026-05-04 16:06 41.13775 10.89731 28656 ft 406 kts 252°
2026-05-04 16:07 41.12457 10.85023 29149 ft 407 kts 252°
2026-05-04 16:07 41.09523 10.74602 30607 ft 397 kts 252°
2026-05-04 16:08 41.08555 10.71179 31053 ft 395 kts 252°
2026-05-04 16:08 41.05681 10.61026 32222 ft 390 kts 252°
2026-05-04 16:09 41.03781 10.54326 33005 ft 387 kts 252°
2026-05-04 16:09 41.01878 10.47641 33789 ft 384 kts 251°
2026-05-04 16:10 40.99996 10.41043 34480 ft 381 kts 251°
2026-05-04 16:11 40.97300 10.31149 35068 ft 384 kts 254°
2026-05-04 16:11 40.96480 10.27763 35075 ft 389 kts 254°
2026-05-04 16:12 40.91460 10.07268 35065 ft 391 kts 253°
2026-05-04 16:13 40.88019 9.93610 35050 ft 392 kts 253°
2026-05-04 16:14 40.84864 9.81075 35037 ft 393 kts 253°
2026-05-04 16:16 40.80496 9.63902 35021 ft 394 kts 253°
2026-05-04 16:17 40.76107 9.46751 35020 ft 395 kts 253°
2026-05-04 16:18 40.72584 9.33020 35028 ft 396 kts 252°
2026-05-04 16:19 40.68153 9.15949 35042 ft 396 kts 252°
2026-05-04 16:20 40.63674 8.98784 35039 ft 397 kts 252°
2026-05-04 16:22 40.59161 8.81616 35034 ft 397 kts 252°
2026-05-04 16:23 40.53706 8.60996 35032 ft 398 kts 252°
2026-05-04 16:25 40.48203 8.40382 35019 ft 399 kts 251°
2026-05-04 16:26 40.43349 8.15863 35040 ft 399 kts 265°
2026-05-04 16:28 40.42197 7.97712 35020 ft 399 kts 260°
2026-05-04 16:29 40.38999 7.72495 35008 ft 401 kts 259°
2026-05-04 16:31 40.36672 7.54461 35002 ft 402 kts 259°
2026-05-04 16:32 40.33844 7.32768 35000 ft 402 kts 259°
2026-05-04 16:33 40.31936 7.18317 34994 ft 403 kts 259°
2026-05-04 16:34 40.30490 7.07481 34997 ft 403 kts 258°
2026-05-04 16:35 40.27588 6.85828 34996 ft 402 kts 258°
2026-05-04 16:36 40.26111 6.75012 34992 ft 402 kts 258°
2026-05-04 16:37 40.24624 6.64208 34989 ft 402 kts 258°
2026-05-04 16:38 40.22639 6.49787 34982 ft 403 kts 258°
2026-05-04 16:39 40.20119 6.31746 34979 ft 404 kts 257°
2026-05-04 16:40 40.18082 6.17274 34977 ft 405 kts 257°
2026-05-04 16:41 40.15499 5.99164 34973 ft 406 kts 257°
2026-05-04 16:43 40.12891 5.81009 34972 ft 407 kts 257°
2026-05-04 16:43 40.11357 5.70090 34965 ft 407 kts 257°
2026-05-04 16:45 40.08242 5.48218 34961 ft 409 kts 257°
2026-05-04 16:46 40.05593 5.29905 34961 ft 411 kts 257°
2026-05-04 16:47 40.03638 5.16451 34960 ft 413 kts 257°
2026-05-04 16:48 40.01466 5.01679 34968 ft 415 kts 256°
2026-05-04 16:49 39.99267 4.86869 34965 ft 416 kts 256°
2026-05-04 16:50 39.97065 4.72717 34943 ft 416 kts 253°
2026-05-04 16:51 39.94737 4.61812 34948 ft 417 kts 252°
2026-05-04 16:52 39.91657 4.47262 34963 ft 417 kts 253°
2026-05-04 16:53 39.89423 4.36317 34976 ft 417 kts 253°
2026-05-04 16:54 39.86382 4.21707 34983 ft 416 kts 252°
2026-05-04 16:55 39.81812 3.99892 34967 ft 417 kts 252°
2026-05-04 16:56 39.77974 3.81723 34960 ft 416 kts 252°
2026-05-04 16:57 39.75671 3.70911 34943 ft 417 kts 252°
2026-05-04 16:58 39.72606 3.56588 34942 ft 416 kts 253°
2026-05-04 17:00 39.69471 3.35413 34951 ft 418 kts 264°
2026-05-04 17:00 39.69072 3.24095 35236 ft 417 kts 265°
2026-05-04 17:01 39.68800 3.16532 35557 ft 415 kts 265°
2026-05-04 17:01 39.68627 3.11795 35810 ft 414 kts 265°
2026-05-04 17:02 39.68425 3.06753 36102 ft 412 kts 265°
2026-05-04 17:02 39.68283 3.03739 36285 ft 411 kts 265°
2026-05-04 17:04 39.67743 2.92070 35296 ft 408 kts 265°
2026-05-04 17:05 39.67442 2.84955 34962 ft 412 kts 265°
2026-05-04 17:05 39.67130 2.77485 34977 ft 413 kts 265°
2026-05-04 17:06 39.66649 2.66332 34970 ft 413 kts 265°
2026-05-04 17:07 39.66208 2.56385 34970 ft 412 kts 265°
2026-05-04 17:07 39.65823 2.47827 34979 ft 412 kts 265°
2026-05-04 17:08 39.65323 2.36897 34973 ft 411 kts 265°
2026-05-04 17:09 39.64975 2.29494 34970 ft 410 kts 265°
2026-05-04 17:09 39.64628 2.22113 34955 ft 410 kts 265°
2026-05-04 17:10 39.63745 2.04030 34953 ft 409 kts 265°
2026-05-04 17:11 39.63388 1.96764 34951 ft 408 kts 265°
2026-05-04 17:12 39.62851 1.85994 34950 ft 407 kts 265°
2026-05-04 17:13 39.61911 1.67855 34950 ft 405 kts 264°
2026-05-04 17:14 39.61144 1.53275 34946 ft 405 kts 264°
2026-05-04 17:15 39.60552 1.42358 34942 ft 404 kts 264°
2026-05-04 17:16 39.59771 1.28160 34953 ft 398 kts 264°
2026-05-04 17:16 39.59162 1.17441 31548 ft 417 kts 263°
2026-05-04 17:17 39.58941 1.13643 30078 ft 422 kts 263°
2026-05-04 17:17 39.58338 1.02994 29144 ft 380 kts 263°
2026-05-04 17:18 39.58143 0.99594 28649 ft 375 kts 263°
2026-05-04 17:18 39.57762 0.93112 27709 ft 368 kts 263°
2026-05-04 17:19 39.57435 0.87617 26912 ft 363 kts 263°
2026-05-04 17:19 39.57051 0.81142 25982 ft 358 kts 263°
2026-05-04 17:20 39.56658 0.74726 25068 ft 356 kts 263°
2026-05-04 17:20 39.56394 0.70350 24467 ft 354 kts 263°
2026-05-04 17:20 39.56205 0.67177 24031 ft 352 kts 263°
2026-05-04 17:21 39.55822 0.60880 23157 ft 348 kts 262°
2026-05-04 17:21 39.55440 0.54706 22343 ft 339 kts 262°
2026-05-04 17:22 39.55254 0.51683 21945 ft 334 kts 262°
2026-05-04 17:22 39.55069 0.48702 21554 ft 330 kts 262°
2026-05-04 17:23 39.54515 0.39936 20362 ft 322 kts 262°
2026-05-04 17:23 39.54336 0.37135 19975 ft 321 kts 262°
2026-05-04 17:23 39.53966 0.31411 19137 ft 317 kts 263°
2026-05-04 17:24 39.53782 0.28571 18726 ft 316 kts 263°
2026-05-04 17:24 39.53193 0.19555 17289 ft 335 kts 263°
2026-05-04 17:25 39.52995 0.16549 16828 ft 333 kts 263°
2026-05-04 17:25 39.52611 0.10602 15915 ft 330 kts 263°
2026-05-04 17:26 39.52222 0.04693 15005 ft 327 kts 263°
2026-05-04 17:26 39.51640 -0.03905 13693 ft 321 kts 264°
2026-05-04 17:27 39.51253 -0.09598 12778 ft 314 kts 264°
2026-05-04 17:27 39.50875 -0.15187 11911 ft 310 kts 264°
2026-05-04 17:28 39.50501 -0.20688 11086 ft 306 kts 264°
2026-05-04 17:29 39.49981 -0.28244 10176 ft 291 kts 264°
2026-05-04 17:29 39.49508 -0.35018 9916 ft 265 kts 264°
2026-05-04 17:30 39.49039 -0.41641 9919 ft 265 kts 264°
2026-05-04 17:31 39.48730 -0.46101 9922 ft 264 kts 266°
2026-05-04 17:31 39.50412 -0.52919 9916 ft 270 kts 294°
2026-05-04 17:32 39.52120 -0.57215 8649 ft 270 kts 294°
2026-05-04 17:33 39.54660 -0.63653 6647 ft 264 kts 295°
2026-05-04 17:33 39.55496 -0.65775 5939 ft 265 kts 296°
2026-05-04 17:34 39.57974 -0.72061 4261 ft 250 kts 296°
2026-05-04 17:34 39.58696 -0.73887 4138 ft 230 kts 296°
2026-05-04 17:35 39.58781 -0.79033 3810 ft 214 kts 219°
2026-05-04 17:35 39.55923 -0.78924 3589 ft 230 kts 136°
2026-05-04 17:35 39.55191 -0.77112 3465 ft 233 kts 92°
2026-05-04 17:36 39.55269 -0.75028 3354 ft 230 kts 84°
2026-05-04 17:36 39.55384 -0.72959 3245 ft 229 kts 85°
2026-05-04 17:36 39.55494 -0.70873 3129 ft 229 kts 85°
2026-05-04 17:36 39.55602 -0.68817 3014 ft 226 kts 86°
2026-05-04 17:37 39.55651 -0.66828 2937 ft 219 kts 97°
2026-05-04 17:37 39.55254 -0.64941 2741 ft 212 kts 113°
2026-05-04 17:37 39.54673 -0.63290 2485 ft 209 kts 116°
2026-05-04 17:37 39.54035 -0.61605 2216 ft 203 kts 117°
2026-05-04 17:38 39.53432 -0.60018 1961 ft 188 kts 117°
2026-05-04 17:38 39.52886 -0.58579 1736 ft 168 kts 116°
2026-05-04 17:38 39.52410 -0.57323 1532 ft 142 kts 116°
2026-05-04 17:38 39.51988 -0.56212 1346 ft 139 kts 116°
2026-05-04 17:39 39.51147 -0.53997 974 ft 132 kts 114°
2026-05-04 17:39 39.50742 -0.52924 739 ft 132 kts 114°
2026-05-04 17:39 39.50343 -0.51861 539 ft 132 kts 114°
2026-05-04 17:40 39.49939 -0.50790 395 ft 133 kts 115°
2026-05-04 17:40 39.49526 -0.49713 256 ft 133 kts 115°
2026-05-04 17:40 39.49246 -0.48957 228 ft 83 kts 115°
2026-05-04 17:40 39.49044 -0.48436 212 ft 42 kts 116°
2026-05-04 17:41 39.48976 -0.48182 216 ft 14 kts 84°
2026-05-04 17:41 39.48978 -0.48144 213 ft 0 kts 84°
2026-05-04 17:42 39.48980 -0.48127 213 ft 8 kts 84°
2026-05-04 17:42 39.48994 -0.48018 216 ft 17 kts 75°
2026-05-04 17:42 39.49030 -0.47820 205 ft 28 kts 77°
2026-05-04 17:43 39.49054 -0.47608 200 ft 15 kts 82°
2026-05-04 17:43 39.49102 -0.47489 202 ft 0 kts 63°
2026-05-04 17:43 39.49103 -0.47486 200 ft 5 kts 61°
2026-05-04 17:43 39.49106 -0.47480 198 ft 0 kts 63°